WetterOnline ( https://www.wetteronline.de )

Wetter aktuell Oslo

Aktuelles Wetter: Oslo/Blindern (96m)

6-stündlich | Neueste Meldungen
Ortszeit Temperatur Wetter
So, 23.02. 19:00 3.4° C fast wolkenlos
So, 23.02. 13:00 7.3° C leicht bewölkt
So, 23.02. 7:00 3.1° C fast wolkenlos
So, 23.02. 1:00 3.1° C leichte Schauer
Sa, 22.02. 19:00 2.9° C leicht bewölkt
Sa, 22.02. 13:00 8.1° C leicht bewölkt
Sa, 22.02. 7:00 6.2° C bedeckt
Sa, 22.02. 1:00 5.9° C -
Ortszeit Temperatur Wetter
Mo, 24.02. 0:00 0.2° C -
So, 23.02. 23:00 0.8° C -
So, 23.02. 22:00 1.3° C leicht bewölkt
So, 23.02. 21:00 0.5° C -
So, 23.02. 20:00 1.3° C -
So, 23.02. 19:00 3.4° C fast wolkenlos
Ortszeit Relative Feuchte Sichtweite
So, 23.02. 19:00 39% >70 km
So, 23.02. 13:00 36% >70 km
So, 23.02. 7:00 61% >70 km
So, 23.02. 1:00 81% 50 km
Sa, 22.02. 19:00 62% >70 km
Sa, 22.02. 13:00 45% >70 km
Sa, 22.02. 7:00 92% >70 km
Sa, 22.02. 1:00 90% 14 km
Ortszeit Relative Feuchte Sichtweite
Mo, 24.02. 0:00 53% 50 km
So, 23.02. 23:00 50% 50 km
So, 23.02. 22:00 48% >70 km
So, 23.02. 21:00 54% 45 km
So, 23.02. 20:00 50% 40 km
So, 23.02. 19:00 39% >70 km
Ortszeit Niederschlagsmenge Niederschlagsart
So, 23.02. 19:00 0.0 l/m2 in 12 Std. -
So, 23.02. 13:00 0.0 l/m2 in 6 Std. -
So, 23.02. 7:00 0.0 l/m2 in 12 Std. -
So, 23.02. 1:00 0.0 l/m2 in 6 Std. -
Sa, 22.02. 19:00 0.5 l/m2 in 12 Std. -
Sa, 22.02. 13:00 0.5 l/m2 in 6 Std. Regen
Sa, 22.02. 7:00 0.1 l/m2 in 12 Std. Regen
Sa, 22.02. 1:00 0.0 l/m2 in 6 Std. -
Ortszeit Niederschlagsmenge Niederschlagsart
Mo, 24.02. 0:00 0.0 l/m2 in 1 Std. -
So, 23.02. 23:00 0.0 l/m2 in 1 Std. -
So, 23.02. 22:00 0.0 l/m2 in 1 Std. -
So, 23.02. 21:00 0.0 l/m2 in 1 Std. -
So, 23.02. 20:00 0.0 l/m2 in 1 Std. -
So, 23.02. 19:00 0.0 l/m2 in 1 Std. -
Ortszeit Stärke Spitze Richtung
km/h Bft. km/h Grad Sektor
So, 23.02. 19:00 11 2 25 320° NW
So, 23.02. 13:00 7 2 25 300° NW
So, 23.02. 7:00 9 2 35 220° SW
So, 23.02. 1:00 11 2 43 220° SW
Sa, 22.02. 19:00 18 3 61 230° SW
Sa, 22.02. 13:00 22 4 72 260° W
Sa, 22.02. 7:00 18 3 36 200° S
Sa, 22.02. 1:00 13 3 56 180° S
Ortszeit Stärke Spitze Richtung
km/h Bft. km/h Grad Sektor
Mo, 24.02. 0:00 4 1 14 - -
So, 23.02. 23:00 4 1 25 120° SO
So, 23.02. 22:00 14 3 18 310° NW
So, 23.02. 21:00 4 1 22 200° S
So, 23.02. 20:00 4 1 18 140° SO
So, 23.02. 19:00 11 2 25 320° NW
Ortszeit Untergrenze Bedeckung Gattung
total tief tief mittel hoch
So, 23.02. 19:00 - 1/8 1/8 - Ac Ci
So, 23.02. 13:00 - 4/8 1/8 Cu Ac Ci
So, 23.02. 7:00 - 1/8 - - - Ci
So, 23.02. 1:00 - - - - - -
Sa, 22.02. 19:00 - 2/8 2/8 Cu Ac Ci
Sa, 22.02. 13:00 - 5/8 2/8 Cu As Cs
Sa, 22.02. 7:00 - 8/8 8/8 St - -
Sa, 22.02. 1:00 - - - - - -
Ortszeit Bedeckungsgrad in Achtel und Wolkenuntergrenze
Mo, 24.02. 0:00 -
So, 23.02. 23:00 -
So, 23.02. 22:00 5
So, 23.02. 21:00 -
So, 23.02. 20:00 -
So, 23.02. 19:00 1
Ortszeit Luftdruck NN (hPa) Tendenz (hPa in 3 Std.)
So, 23.02. 19:00 994 + 3,8
So, 23.02. 13:00 989 + 0,8
So, 23.02. 7:00 987 + 2,2
So, 23.02. 1:00 983 - 0,5
Sa, 22.02. 19:00 983 + 2,4
Sa, 22.02. 13:00 978 + 4,8
Sa, 22.02. 7:00 980 - 5,7
Sa, 22.02. 1:00 990 - 3,1
Ortszeit Luftdruck NN (hPa) Tendenz (hPa in 3 Std.)
Mo, 24.02. 0:00 1001 + 4,1
So, 23.02. 23:00 1000 + 4,3
So, 23.02. 22:00 999 + 4,5
So, 23.02. 21:00 997 + 4,6
So, 23.02. 20:00 996 + 4,6
So, 23.02. 19:00 994 + 3,8
Ortszeit Schneehöhe (cm)
So, 23.02. 19:00 -
So, 23.02. 13:00 -
So, 23.02. 7:00 0
So, 23.02. 1:00 -
Sa, 22.02. 19:00 -
Sa, 22.02. 13:00 -
Sa, 22.02. 7:00 0
Sa, 22.02. 1:00 -
Ortszeit Schneehöhe (cm)
Mo, 24.02. 0:00 -
So, 23.02. 23:00 -
So, 23.02. 22:00 -
So, 23.02. 21:00 -
So, 23.02. 20:00 -
So, 23.02. 19:00 -
Link zu dieser Seite / Seite empfehlen

Das Wetter in ...